Regional Weather Roundup
Issued by NWS

Home | Current Version | Previous Version | Graphics & Text | Print | Product List | Glossary On
Versions: 1 2 3 4 5 6 7 8 9 10 11 12 13 14 15 16 17 18 19 20 21 22 23 24 25 26 27 28 29 30 31 32 33 34 35 36 37 38 39 40 41 42 43 44 45 46 47 48 49 50
000
ASUS43 KMKX 232200
RWRWI

WISCONSIN REGIONAL WEATHER ROUNDUP
NATIONAL WEATHER SERVICE MILWAUKEE/SULLIVAN WI
400 PM CST THU FEB 23 2017

NOTE: "FAIR" INDICATES FEW OR NO CLOUDS BELOW 12,000 FEET WITH NO
SIGNIFICANT WEATHER AND/OR OBSTRUCTIONS TO VISIBILITY.

WIZ001-002-006>008-014>016-023>028-232300-
NORTHWEST WISCONSIN

CITY           SKY/WX    TMP DP  RH WIND       PRES   REMARKS
SUPERIOR ARPT  CLOUDY    32  24  72 NW5       29.97S WCI  27
ASHLAND        PTSUNNY   32  24  72 W9        29.95R WCI  24
HAYWARD        CLOUDY    32  22  66 VRB6      29.92R WCI  26
SIREN          CLOUDY    31  22  71 N8        29.95S WCI  23
CUMBERLAND     CLOUDY    32  23  69 N14       29.89S WCI  22
RICE LAKE      CLOUDY    36  26  66 N10       29.91S WCI  28
CHETEK         CLOUDY    37  26  64 N7        29.89S WCI  31
LADYSMITH      CLOUDY    37  26  63 N9        29.90R WCI  31
EAU CLAIRE     NOT AVBL
MENOMONIE      CLOUDY    40  27  59 N9        29.87F WCI  34
NEW RICHMOND   CLOUDY    35  25  68 N12       29.90S WCI  27
OSCEOLA        CLOUDY    32  25  73 N13       29.94F WCI  23
$$

WIZ003>005-009-010-017-018-232300-
NORTH CENTRAL WISCONSIN

CITY           SKY/WX    TMP DP  RH WIND       PRES   REMARKS
MANITOWISH WTR CLOUDY    29  26  87 NW7       29.88R WCI  22
ARBOR VITAE    PTSUNNY   33  28  81 N10         N/A  WCI  25
WOODRUFF       PTSUNNY   33  28  81 N10         N/A  WCI  25
RHINELANDER    SUNNY     37  26  64 N8        29.86R WCI  31
EAGLE RIVER    PTSUNNY   32  26  76 N8        29.86R WCI  25
LAND O LAKES   CLOUDY    32  27  80 NW6       29.88R WCI  27
PHILLIPS       CLOUDY    34  25  70 N5        29.87R WCI  30
TOMAHAWK       MOSUNNY   37  24  59 NW5       29.85S WCI  34
MEDFORD        PTSUNNY   39  27  60 N10       29.84R WCI  33
MERRILL        NOT AVBL
$$

WIZ029-030-035-036-043>047-232300-
CENTRAL WISCONSIN

CITY           SKY/WX    TMP DP  RH WIND       PRES   REMARKS
WAUSAU         CLOUDY    41  23  48 N7        29.83R
MOSINEE        MOSUNNY   39  27  60 N9        29.85R WCI  33
MARSHFIELD     CLOUDY    40  26  57 NE9       29.82S WCI  34
STEVENS POINT  CLOUDY    40  24  51 NE7       29.83S
WAUPACA        CLOUDY    47  29  49 NE7       29.84S
WAUTOMA        CLOUDY    42  31  64 E8        29.84F
WISC RAPIDS    CLOUDY    44  26  49 NE8       29.84R
CAMP DOUGLAS   NOT AVBL
$$

WIZ011>013-019>022-031-037>040-048>050-232300-
NORTHEAST WISCONSIN

CITY           SKY/WX    TMP DP  RH WIND       PRES   REMARKS
ANTIGO         MOSUNNY   39  25  56 N8        29.83S WCI  34
SHAWANO        CLOUDY    44  27  51 E3        29.85S
OCONTO         MOSUNNY   37  26  64 E9        29.86S WCI  30
STURGEON BAY   MOSUNNY   40  25  55 NE8       29.87  WCI  34
GREEN BAY      CLOUDY    42  28  57 NE9       29.87R
MANITOWOC      MOSUNNY   37  28  70 E9        29.87R WCI  31
APPLETON       PTSUNNY   41  27  56 E6        29.84R
CLINTONVILLE   CLOUDY    45  23  42 NE6       29.84S
OSHKOSH        PTSUNNY   39  30  70 E7        29.86R WCI  34
$$

WIZ032>034-041-042-053>061-232300-
SOUTHWEST WISCONSIN

CITY           SKY/WX    TMP DP  RH WIND       PRES   REMARKS
LA CROSSE      CLOUDY    46  30  53 N14G21    29.80F
SPARTA         CLOUDY    44  32  63 NE7         N/A
VIROQUA        CLOUDY    43  32  64 E15       29.77F
BOSCOBEL       CLOUDY    47  33  58 E8        29.78S
PRAIRIE DU CHI CLOUDY    46  32  58 NE12      29.76S
PLATTEVILLE    CLOUDY    42  40  92 NE10      29.77R
$$

WIZ056-057-062-063-064-067-068-232300-
SOUTH CENTRAL WISCONSIN

CITY           SKY/WX    TMP DP  RH WIND       PRES   REMARKS
REEDSBURG      CLOUDY    44  33  66 E9        29.79R
BARABOO/DELLS  CLOUDY    43  32  65 E10G17    29.80S
LONE ROCK      NOT AVBL
MINERAL POINT  CLOUDY    45  37  76 E14G20    29.76F
MADISON        CLOUDY    42  34  73 NE10G26   29.80F
MIDDLETON      CLOUDY    45  36  70 E10       29.80F
WATERTOWN      CLOUDY    39  35  84 E13       29.83R WCI  32
MONROE         LGT RAIN  41  37  87 NE15      29.76S
JANESVILLE     DRIZZLE   41  37  87 E15       29.78F
$$

WIZ051-052-058>065-066-070>072-232300-
SOUTHEAST WISCONSIN

CITY           SKY/WX    TMP DP  RH WIND       PRES   REMARKS
MILWAUKEE      CLOUDY    38  30  73 NE15G22   29.85S WCI  29
WAUKESHA       CLOUDY    36  30  80 NE15      29.85F WCI  26
MILWAUKEE/TIMM CLOUDY    36  28  75 NE10G20   29.86F WCI  28
RACINE         CLOUDY    37  31  78 NE15G24   29.85F WCI  28
KENOSHA        CLOUDY    38  32  79 NE17      29.82F WCI  28
FOND DU LAC    CLOUDY    39  29  67 NE9       29.85S WCI  33
SHEBOYGAN      CLOUDY    36  29  75 E12       29.88R WCI  28
WEST BEND      CLOUDY    36  32  87 E10       29.86S WCI  28
JUNEAU         CLOUDY    38  32  77 N12       29.84F WCI  31
$$

LSZ147-162-232300-
LAKE SUPERIOR

STATION/POSITION TIME  TEMP    WIND        PRES    WAVE
                       AIR SEA DIR/SP/G            HT/PER
                 (UTC) (F)     (DEG/KT/KT) (MB)    (FT/S)
DEVILS ISLAND    2100   31     240/ 13/ 15 1014.4F
PORT WING        2140   31     240/  9/ 11 1014.9R
SAXON HARBOR     2030   32     340/  6/  8 1013.5S
$$

LMZ867-665-643>646-232300-
LAKE MICHIGAN

STATION/POSITION TIME  TEMP    WIND        PRES    WAVE
                       AIR SEA DIR/SP/G            HT/PER
                 (UTC) (F)     (DEG/KT/KT) (MB)    (FT/S)
CHAMBERS ISLAND  2140   35      40/ 11/ 16 1011.5S
NORTHPORT PIER   2140   35     350/ 11/ 13 1012.2S
SISTER BAY       2105   41     360/ 17/ 21   N/A
KEWAUNEE LAKESHO 2130   37      70/  9/ 14 1010.7F
SHEBOYGAN LAKESH 2100   36      50/ 22/ 25 1010.3F
PORT WASHINGTON  2140   38      50/ 12/ 15 1012.9R
MILWAUKEE LAKESH 2130   36      40/ 18/ 21   N/A
KENOSHA   LAKESH 2100   36      20/ 16/ 18 1010.8
$$

TC  - TEMPERATURE IN CELSIUS
VSB - VISIBILITY IN STATUTE MILES
WCI - WIND CHILL INDEX
HX  - HEAT INDEX





USA.gov is the U.S. government's official web portal to all federal, state and local government web resources and services.